Probability
0 0 0 0 0 0 0 0 0 0 0 0 0 0 0 0 0 0 0 0 0 0 0 0 0 6 6 32 35 42 48 45 58 61 77 84 77 74
0 0 0 0 0 0 0 0 0 0 0 0 0 0 0 0 0 0 0 0 0 0 0 0 0 0 0 3 6 6 10 6 16 23 29 39 58 74
0 0 0 0 0 0 0 0 0 0 0 0 0 0 0 0 0 0 0 0 0 0 0 0 0 0 0 0 0 0 0 0 3 3 6 13 16 23
0 0 0 0 0 0 0 0 0 0 0 0 0 0 0 0 0 0 0 0 0 0 0 0 0 0 0 0 0 0 0 0 0 0 3 3 13 16
0 0 0 0 0 0 0 0 0 0 0 0 0 0 0 0 0 0 0 0 0 0 0 0 0 0 0 0 0 0 0 0 0 0 0 0 3 3
0 0 0 0 0 0 0 0 0 0 0 0 0 0 0 0 0 0 0 0 0 0 0 0 0 0 0 0 0 0 0 0 0 0 0 0 0 0
0 0 0 0 0 0 0 0 0 0 0 0 0 0 0 0 0 0 0 0 0 0 0 0 0 0 0 0 0 0 0 0 0 0 0 0 0 0
0 0 0 0 0 0 0 0 0 0 0 0 0 0 0 0 0 0 0 0 0 0 0 0 0 0 0 0 0 0 0 0 0 0 0 0 0 0
0 0 0 0 0 0 0 0 0 0 0 0 0 0 0 0 0 0 0 0 0 0 0 0 0 0 0 0 0 0 0 0 0 0 0 0 0 0
0 0 0 0 0 0 0 0 0 0 0 0 0 0 0 0 0 0 0 0 0 0 0 0 0 0 0 0 0 0 0 0 0 0 0 0 0 0
0 0 0 0 0 0 0 0 0 0 0 0 0 0 0 0 0 0 0 0 0 0 0 0 0 0 0 0 0 0 0 0 0 0 0 0 0 0
0 0 0 0 0 0 0 0 0 0 0 0 0 0 0 0 0 0 0 0 0 0 0 0 0 0 0 0 0 0 0 0 0 0 0 0 0 0
0 0 0 0 0 0 0 0 0 0 0 0 0 0 0 0 0 0 0 0 0 0 0 0 0 0 0 0 0 0 0 0 0 0 0 0 0 0
0 0 0 0 0 0 0 0 0 0 0 0 0 0 0 0 0 0 0 0 0 0 0 0 0 0 0 0 0 0 0 0 0 0 0 0 0 0
0 0 0 0 0 0 0 0 0 0 0 0 0 0 0 0 0 0 0 0 0 0 0 0 0 0 0 0 0 0 0 0 0 0 0 0 0 0
0 0 0 0 0 0 0 0 0 0 0 0 0 0 0 0 0 0 0 0 0 0 0 0 0 0 0 0 0 0 0 0 0 0 0 0 0 0
0 0 0 0 0 0 0 0 0 0 0 0 0 0 0 0 0 0 0 0 0 0 0 0 0 0 0 0 0 0 0 0 0 0 0 0 0 0
0 0 0 0 0 0 0 0 0 0 0 0 0 0 0 0 0 0 0 0 0 0 0 0 0 0 0 0 0 0 0 0 0 0 0 0 0 0
0 0 0 0 0 0 0 0 0 0 0 0 0 0 0 0 0 0 0 0 0 0 0 0 0 0 0 0 0 0 0 0 0 0 0 0 0 0
0 0 0 0 0 0 0 0 0 0 0 0 0 0 0 0 0 0 0 0 0 0 0 0 0 0 0 0 0 0 0 0 0 0 0 0 0 0
0 0 0 0 0 0 0 0 0 0 0 0 0 0 0 0 0 0 0 0 0 0 0 0 0 0 0 0 0 0 0 0 0 0 0 0 0 0
0 0 0 0 0 0 0 0 0 0 0 0 0 0 0 0 0 0 0 0 0 0 0 0 0 0 0 0 0 0 0 0 0 0 0 0 0 0
0 0 0 0 0 0 0 0 0 0 0 0 0 0 0 0 0 0 0 0 0 0 0 0 0 0 0 0 0 0 0 0 0 0 0 0 0 0
Height
5782 5782 5783 5784 5786 5788 5790 5792 5795 5797 5799 5802 5805 5807 5810 5812 5815 5818 5822 5825 5828 5831 5834 5838 5841 5844 5847 5850 5852 5855 5857 5859 5861 5864 5866 5868 5870 5872
5781 5781 5781 5782 5783 5784 5786 5787 5790 5792 5794 5796 5799 5801 5803 5806 5809 5811 5814 5817 5820 5823 5827 5830 5833 5836 5839 5842 5845 5847 5850 5852 5855 5857 5859 5861 5863 5865
5780 5780 5780 5780 5781 5781 5782 5784 5785 5787 5789 5790 5792 5795 5797 5799 5801 5804 5806 5809 5812 5815 5818 5821 5824 5827 5830 5833 5836 5839 5842 5844 5846 5849 5851 5853 5855 5857
5779 5779 5779 5779 5779 5779 5780 5781 5781 5783 5784 5785 5787 5788 5790 5792 5794 5796 5799 5801 5803 5806 5809 5812 5815 5818 5821 5824 5826 5829 5832 5834 5837 5839 5842 5844 5846 5848
5778 5778 5777 5777 5777 5777 5778 5778 5778 5779 5780 5781 5782 5783 5784 5786 5788 5789 5791 5793 5795 5797 5799 5802 5805 5808 5811 5814 5816 5819 5822 5825 5827 5829 5831 5833 5836 5838
5777 5776 5776 5775 5775 5775 5775 5775 5775 5776 5776 5776 5777 5777 5778 5780 5781 5782 5784 5785 5787 5789 5791 5793 5795 5798 5800 5803 5806 5808 5811 5813 5815 5818 5820 5822 5824 5827
5776 5775 5774 5774 5773 5773 5772 5772 5772 5772 5772 5772 5772 5772 5773 5774 5775 5775 5776 5777 5779 5780 5782 5784 5786 5788 5790 5793 5795 5797 5799 5801 5804 5806 5808 5810 5812 5814
5775 5774 5772 5772 5771 5770 5770 5769 5769 5769 5768 5768 5768 5768 5768 5768 5768 5769 5770 5771 5772 5773 5774 5775 5777 5779 5780 5783 5784 5786 5788 5790 5792 5794 5796 5798 5800 5802
5773 5772 5771 5770 5769 5768 5767 5767 5766 5765 5765 5764 5763 5763 5763 5763 5763 5763 5763 5763 5764 5765 5766 5767 5768 5770 5771 5773 5774 5776 5777 5778 5780 5782 5784 5785 5787 5789
5771 5770 5769 5768 5766 5765 5764 5763 5762 5762 5761 5760 5759 5759 5758 5758 5757 5757 5757 5757 5758 5758 5759 5759 5760 5761 5762 5763 5765 5766 5767 5768 5769 5770 5772 5773 5774 5775
5769 5767 5766 5765 5764 5763 5761 5760 5759 5758 5757 5756 5755 5754 5753 5753 5752 5752 5751 5751 5752 5751 5752 5752 5753 5753 5754 5754 5755 5756 5757 5757 5758 5759 5760 5760 5761 5763
5766 5764 5763 5762 5760 5759 5758 5757 5755 5754 5753 5752 5751 5750 5749 5748 5747 5747 5746 5746 5745 5745 5745 5745 5745 5745 5746 5746 5746 5746 5747 5747 5747 5748 5748 5748 5749 5750
5763 5761 5759 5758 5757 5755 5754 5753 5751 5750 5748 5747 5746 5745 5744 5743 5742 5741 5741 5740 5739 5739 5739 5738 5738 5738 5738 5738 5737 5737 5737 5737 5737 5737 5737 5737 5737 5738
5759 5757 5756 5754 5753 5751 5749 5748 5747 5745 5744 5743 5741 5740 5739 5738 5737 5736 5735 5734 5733 5733 5732 5731 5731 5730 5730 5730 5730 5729 5728 5727 5727 5727 5726 5726 5726 5727
5755 5753 5752 5750 5748 5747 5745 5743 5742 5740 5739 5737 5736 5735 5733 5732 5731 5730 5729 5728 5727 5726 5725 5724 5723 5722 5722 5721 5721 5720 5719 5718 5717 5717 5716 5716 5716 5716
5751 5749 5747 5745 5743 5741 5740 5738 5736 5735 5733 5732 5730 5729 5727 5726 5724 5723 5722 5721 5720 5718 5717 5716 5715 5714 5713 5713 5712 5711 5710 5709 5708 5707 5706 5706 5706 5705
5745 5743 5741 5739 5737 5735 5734 5732 5730 5728 5727 5725 5723 5722 5720 5719 5717 5716 5714 5713 5712 5710 5709 5708 5707 5706 5705 5704 5703 5702 5700 5700 5698 5697 5697 5696 5695 5695
5739 5737 5735 5733 5731 5729 5727 5725 5723 5721 5719 5718 5716 5714 5713 5711 5709 5708 5706 5705 5703 5702 5700 5699 5698 5697 5696 5694 5693 5692 5691 5689 5688 5687 5686 5685 5685 5684
5732 5730 5728 5726 5724 5721 5719 5717 5715 5713 5711 5710 5708 5706 5704 5702 5700 5699 5697 5695 5694 5692 5691 5689 5688 5687 5686 5685 5683 5680 5679 5678 5677 5676 5675 5674 5674 5673
5724 5722 5720 5718 5716 5713 5711 5709 5707 5705 5703 5701 5699 5697 5695 5693 5691 5689 5687 5685 5683 5682 5680 5678 5676 5675 5674 5674 5673 5670 5667 5666 5665 5664 5663 5662 5661 5661
5715 5713 5711 5709 5707 5705 5702 5700 5698 5696 5693 5691 5689 5686 5684 5682 5680 5678 5676 5674 5672 5670 5668 5666 5664 5662 5661 5660 5660 5658 5656 5653 5651 5650 5649 5649 5648 5648
5706 5704 5702 5700 5698 5696 5693 5691 5688 5686 5683 5681 5678 5676 5673 5671 5669 5667 5664 5662 5660 5658 5656 5654 5651 5649 5647 5646 5645 5644 5643 5640 5637 5635 5634 5633 5633 5633
5696 5694 5692 5690 5688 5686 5683 5680 5678 5675 5672 5670 5667 5664 5662 5659 5657 5654 5652 5649 5647 5645 5642 5640 5638 5635 5633 5631 5630 5628 5627 5625 5623 5622 5620 5617 5616 5616
Wind_Speed
3 4 5 8 11 13 14 15 17 19 21 22 24 26 27 28 30 31 32 32 32 33 33 33 33 32 32 31 30 29 29 30 29 28 28 28 28 28
3 3 4 5 8 10 11 13 15 17 19 21 24 25 27 29 29 30 31 32 33 34 35 35 35 35 35 34 34 34 33 33 32 32 31 31 31 31
4 4 4 5 6 7 9 11 13 15 17 19 22 24 26 28 29 30 31 32 33 34 35 36 37 37 37 37 37 36 36 36 36 36 35 35 34 34
4 4 5 6 6 7 8 9 10 12 14 16 19 21 23 25 27 29 30 31 32 34 34 36 37 38 38 39 38 38 38 38 38 39 39 39 38 38
5 5 5 6 6 7 7 9 10 11 13 14 16 18 21 23 25 27 28 29 31 33 34 35 37 37 38 39 40 40 40 41 41 41 41 41 41 41
6 6 6 6 7 7 8 9 10 11 13 14 15 17 19 21 22 24 26 28 30 32 34 35 37 38 38 39 40 41 42 42 43 43 42 42 43 43
7 7 7 7 8 8 9 10 11 12 13 14 16 17 18 19 21 22 24 26 29 31 32 34 36 37 38 39 39 40 42 43 44 45 44 44 43 44
8 8 8 9 9 9 10 11 12 13 14 14 15 16 17 19 20 21 23 24 26 28 30 32 34 34 36 37 38 39 41 42 44 45 45 45 45 46
10 10 9 10 10 10 11 12 13 13 14 15 15 16 17 18 19 21 22 23 24 25 27 28 31 32 34 34 35 37 39 40 41 43 44 45 45 46
11 11 11 11 11 12 12 13 13 14 14 15 16 16 17 18 19 20 21 22 23 24 24 25 27 29 31 33 34 35 36 38 39 40 42 43 44 45
12 12 12 12 12 12 13 13 14 14 14 15 16 16 17 17 18 19 20 20 21 23 23 24 26 26 28 30 32 33 34 36 37 38 40 41 43 44
13 13 13 13 13 13 13 14 14 15 15 15 16 16 17 17 18 19 19 20 20 21 23 23 25 25 26 28 29 31 32 34 35 36 37 39 41 42
14 14 14 14 14 15 15 15 15 16 16 17 17 17 18 18 19 19 20 20 20 21 22 23 24 25 25 26 28 29 30 32 33 34 35 37 38 39
15 15 16 16 16 16 16 17 17 17 17 18 18 19 19 19 20 20 21 21 22 23 24 24 25 25 26 26 27 28 30 31 32 33 34 35 36 38
17 17 17 17 18 18 18 18 18 18 19 19 19 20 20 21 21 22 22 22 23 24 25 26 26 26 27 27 28 28 29 30 31 32 33 34 34 35
18 19 19 19 20 20 20 20 20 20 20 21 21 22 22 23 23 23 24 24 25 25 26 27 27 28 28 28 29 29 30 31 32 33 33 33 34 35
21 21 21 22 22 22 22 22 23 23 23 23 23 23 23 24 25 25 25 26 26 27 28 28 29 29 29 29 30 31 31 32 33 33 34 34 35 36
23 23 24 24 25 25 24 25 25 25 25 26 26 26 26 26 27 27 28 28 28 29 29 30 30 30 31 31 32 32 33 33 34 34 34 35 35 36
25 25 26 26 26 27 27 27 27 27 28 28 28 28 29 29 29 30 30 30 31 31 32 32 33 33 33 33 34 35 35 35 35 36 36 36 36 36
27 27 27 28 28 28 28 29 29 29 30 30 31 31 31 31 32 32 32 33 33 34 34 35 35 35 35 35 35 36 38 38 38 38 38 38 37 37
29 29 29 29 30 30 31 31 31 31 32 32 33 33 33 34 34 34 35 35 35 36 36 37 38 38 38 38 37 38 39 40 40 40 40 40 40 39
31 31 31 32 32 32 33 33 34 34 34 34 35 35 35 36 36 37 37 37 38 38 39 39 40 41 41 41 40 40 40 41 42 43 43 43 42 41
33 33 33 34 34 34 35 36 36 36 36 36 36 37 37 38 38 39 39 40 40 41 41 41 42 43 43 44 44 43 43 43 44 44 45 46 46 46
Wind_Direction
284 263 250 240 237 239 240 240 240 239 238 236 236 236 238 238 238 239 239 240 240 240 240 241 240 240 240 241 241 242 242 243 245 247 247 248 250 252
294 276 268 259 254 248 247 247 246 243 242 239 239 240 240 241 241 242 242 242 242 242 242 242 243 243 243 243 242 243 245 246 247 249 250 250 251 253
327 310 290 280 271 263 258 256 253 249 247 244 243 243 244 245 245 246 246 245 243 243 243 243 244 244 244 245 244 245 247 248 249 250 250 251 252 253
325 312 299 287 282 274 268 265 260 255 253 251 248 248 248 247 248 248 249 248 246 245 245 245 244 244 245 246 247 247 248 249 249 251 252 252 253 254
324 316 302 290 286 280 274 272 268 264 260 258 256 253 251 250 251 251 251 250 249 248 248 248 247 246 246 248 248 248 249 250 251 253 253 253 254 255
327 321 311 298 292 288 282 279 277 274 270 268 264 261 258 254 254 254 253 253 253 252 251 251 251 250 249 249 250 250 251 251 252 253 254 254 255 256
330 323 317 309 301 295 290 285 283 281 279 274 270 268 264 260 258 257 257 256 257 256 256 255 254 252 252 252 252 253 253 253 252 254 255 256 256 256
327 323 318 312 306 299 292 288 286 284 283 280 275 274 272 267 264 260 259 258 259 259 259 258 257 255 254 254 255 255 255 255 254 254 254 256 257 257
329 324 319 314 309 304 298 293 290 288 287 286 283 281 279 275 271 268 264 261 260 260 261 260 258 256 256 256 257 257 257 257 257 256 256 257 258 258
327 324 320 316 312 308 305 302 298 294 291 289 287 286 284 281 278 274 270 267 264 264 263 263 262 261 258 258 258 259 259 259 259 259 259 259 259 258
325 322 319 315 312 310 307 305 303 299 296 294 291 289 286 285 283 278 274 270 267 268 268 265 264 264 262 261 261 260 261 261 261 261 260 260 259 258
323 322 318 315 311 309 306 305 304 301 298 295 293 291 288 286 285 282 278 274 271 269 269 268 267 266 265 265 264 263 263 262 262 262 261 261 260 259
320 320 318 315 311 309 307 305 304 302 300 298 296 294 292 289 288 286 282 279 276 274 272 271 271 270 268 268 268 268 267 266 265 265 263 263 262 260
317 317 316 314 312 310 307 305 303 302 300 298 296 295 293 291 289 288 286 283 280 278 276 276 276 275 273 271 270 271 271 271 270 268 267 266 265 263
313 314 314 313 311 310 307 305 303 302 300 299 297 295 293 291 290 288 287 285 283 282 280 279 279 278 278 276 274 273 273 273 274 272 270 269 267 265
310 311 312 311 310 308 306 304 302 299 298 298 297 295 293 292 291 290 288 287 285 284 283 282 281 280 280 279 276 275 275 274 274 274 274 273 270 269
305 306 307 308 307 306 304 303 301 299 298 297 296 295 294 292 291 289 288 287 286 285 284 283 283 282 281 280 279 277 276 276 276 276 275 274 273 272
300 302 303 304 305 304 302 300 299 298 297 296 295 294 293 291 290 289 288 287 286 285 284 284 283 283 282 281 280 279 278 277 276 276 276 275 273 272
297 299 301 302 303 302 301 300 299 298 297 295 294 292 292 291 290 289 288 288 287 285 284 284 283 282 282 281 281 280 279 278 277 277 276 275 275 273
295 297 299 300 301 302 301 300 298 298 297 295 294 292 291 290 290 289 289 288 287 286 285 284 283 282 282 281 279 279 280 279 277 277 276 275 275 274
293 295 298 299 300 301 300 299 298 297 297 296 295 293 291 290 289 289 289 288 287 286 285 285 284 283 283 282 281 279 279 279 279 277 276 275 274 273
291 294 296 297 299 300 300 299 299 298 297 296 295 293 292 291 290 289 289 288 287 286 285 285 284 283 282 282 281 280 279 278 278 278 277 276 274 272
289 292 295 296 297 298 299 299 299 298 297 296 295 294 293 292 291 290 289 288 288 286 285 285 284 283 282 281 281 280 279 277 277 277 277 277 276 274